Station APRP7 - 1630000 - Apra Harbor, Guam Image indicating link to RSS feed of recent meteorological observations for station APRP7


Conditions at APRP7 as of
1430 GMT on 06/21/2024:
     

Click on the graph icon in the table below to see a time series plot of the last five days of that observation.

5-day plot - Wind Direction Wind Direction (WDIR): E ( 100 deg true )
5-day plot - Wind Speed Wind Speed (WSPD): 2.9 kts
5-day plot - Wind Gust Wind Gust (GST): 4.1 kts
5-day plot - Atmospheric Pressure Atmospheric Pressure (PRES):29.89 in
5-day plot - Air Temperature Air Temperature (ATMP): 81.1 °F
5-day plot - Water Temperature Water Temperature (WTMP): 83.7 °F
5-day plot - Wind Speed at 10 Meters Wind Speed at 10 meters (WSPD10M): 3.9 kts
5-day plot - Wind Speed at 20 Meters Wind Speed at 20 meters (WSPD20M): 3.9 kts
5-day plot -  Wind Speed, Wind Gust and Atmospheric Pressure Combined plot of Wind Speed, Gust, and Air Pressure
NOS Water Level Observation Network Water Level
Previous observations
TIME
(GMT)
5-day plot - Wind Direction
WDIR
 
5-day plot - Wind Speed
WSPD
kts
5-day plot - Wind Gust
GST
kts
5-day plot - Wave Height
WVHT
ft
5-day plot - Dominant Wave Period
DPD
sec
5-day plot - Average Wave Period
APD
sec
5-day plot - Mean Wave Direction
MWD
 
5-day plot - Atmospheric Pressure
PRES
in
5-day plot - Pressure Tendency
PTDY
in
5-day plot - Air Temperature
ATMP
°F
5-day plot - Water Temperature
WTMP
°F
5-day plot - Dew Point
DEWP
°F
5-day plot - Salinity
SAL
psu
5-day plot - Visibility
VIS
nmi
5-day plot - Tide (above MLLW)
TIDE
ft
2024-06-21 1424 E 2.9 4.1----29.89- 81.3 83.7----
2024-06-21 1418 E 2.9 4.1----29.90- 81.3 83.7----
2024-06-21 1412ENE 2.9 5.1----29.90- 81.7 83.7----
2024-06-21 1406ENE 4.1 5.1----29.90- 81.7 83.7----
2024-06-21 1400ENE 4.1 5.1----29.90+0.00 81.7 83.7----
2024-06-21 1354ENE 4.1 5.1----29.90- 81.7 83.7----
2024-06-21 1348 NE 4.1 5.1----29.90- 81.9 83.7----
2024-06-21 1342 NE 4.1 4.1----29.91- 81.9 83.7----
2024-06-21 1336ENE 2.9 4.1----29.91- 81.7 83.7----
2024-06-21 1330ENE 2.9 4.1----29.91- 81.5 83.7----
2024-06-21 1324ENE 1.9 4.1----29.90- 81.7 83.7----
2024-06-21 1318 E 2.9 4.1----29.90- 81.9 83.8----
2024-06-21 1312 E 2.9 4.1----29.90- 81.7 83.8----
2024-06-21 1306 E 2.9 4.1----29.91- 81.7 83.8----
2024-06-21 1300ENE 2.9 4.1----29.91+0.02 81.7 83.8----
2024-06-21 1254 E 2.9 5.1----29.91- 81.7 83.8----
2024-06-21 1248 NE 2.9 4.1----29.91- 81.9 83.8----
2024-06-21 1242 NE 1.9 4.1----29.91- 82.0 83.7----
2024-06-21 1236 E 2.9 5.1----29.90- 82.2 83.8----
2024-06-21 1230 E 1.9 4.1----29.90- 82.0 83.8----
2024-06-21 1224ENE 2.9 4.1----29.90- 81.9 83.7----
2024-06-21 1218 E 1.9 1.9----29.90- 81.9 83.7----
2024-06-21 1212 E 1.9 1.9----29.90- 81.9 83.8----
2024-06-21 1206 E 1.9 2.9----29.90- 82.0 83.7----
2024-06-21 1200 E 2.9 2.9----29.90+0.03 82.4 83.7----
2024-06-21 1154 E 1.9 4.1----29.90- 81.9 83.7----
2024-06-21 1148ESE 1.9 5.1----29.90- 81.7 83.7----
2024-06-21 1142ESE 2.9 4.1----29.90- 81.9 83.7----
2024-06-21 1136 E 4.1 6.0----29.90- 81.9 83.8----
2024-06-21 1130 E 2.9 4.1----29.90- 81.9 83.8----
2024-06-21 1124ENE 1.9 2.9----29.90- 81.9 83.7----
2024-06-21 1118 E 2.9 4.1----29.90- 81.9 83.7----
2024-06-21 1112 E 2.9 6.0----29.89- 81.9 83.7----
2024-06-21 1106ESE 5.1 6.0----29.89- 81.9 83.8----
2024-06-21 1100 E 2.9 5.1----29.89+0.03 81.9 83.8----
2024-06-21 1054ESE 2.9 4.1----29.89- 81.7 83.8----
2024-06-21 1048 SE 2.9 4.1----29.89- 81.7 83.7----
2024-06-21 1042 E 2.9 5.1----29.88- 81.5 83.7----
2024-06-21 1036 E 4.1 5.1----29.89- 81.5 83.7----
2024-06-21 1030ESE 4.1 5.1----29.88- 81.5 83.8----
2024-06-21 1024ESE 4.1 5.1----29.88- 81.3 83.8----
2024-06-21 1018ESE 2.9 4.1----29.88- 81.5 83.7----
2024-06-21 1012ESE 2.9 7.0----29.88- 81.3 83.7----
2024-06-21 1006ESE 5.1 6.0----29.89- 81.5 83.7----
2024-06-21 1000ESE 4.1 5.1----29.89+0.04 81.5 83.7----
2024-06-21 0954ESE 4.1 6.0----29.88- 81.5 83.7----
2024-06-21 0948ESE 5.1 5.1----29.88- 81.7 83.8----
2024-06-21 0942ESE 1.9 5.1----29.88- 81.7 83.8----
2024-06-21 0936 SE 5.1 6.0----29.88- 81.7 84.0----
2024-06-21 0930ESE 5.1 8.0----29.88- 81.5 84.0----
2024-06-21 0924 SE 5.1 7.0----29.88- 81.5 83.8----
2024-06-21 0918 SE 6.0 8.9----29.88- 81.5 83.7----
2024-06-21 0912 SE 8.0 11.1----29.88- 81.5 83.8----
2024-06-21 0906ESE 5.1 9.9----29.87- 81.5 83.8----
2024-06-21 0900ESE 8.0 9.9----29.87+0.04 81.7 83.8----
2024-06-21 0854ESE 7.0 9.9----29.87- 81.7 84.0----
2024-06-21 0848ESE 8.0 11.1----29.87- 81.7 84.0----
2024-06-21 0842 SE 7.0 9.9----29.87- 81.7 83.8----
2024-06-21 0836 SE 5.1 8.9----29.87- 81.9 83.8----
2024-06-21 0830 SE 7.0 12.0----29.87- 82.0 83.8----
2024-06-21 0824 SE 8.0 11.1----29.87- 81.9 83.8----
2024-06-21 0818ESE 8.0 11.1----29.87- 81.7 84.0----
2024-06-21 0812 SE 9.9 13.0----29.87- 81.7 84.0----
2024-06-21 0806 SE 8.9 13.0----29.87- 81.7 84.0----
2024-06-21 0800ESE 8.0 13.0----29.87+0.03 81.5 84.0----
2024-06-21 0754ESE 9.9 13.0----29.86- 81.5 84.0----
2024-06-21 0748ESE 7.0 11.1----29.86- 81.5 84.0----
2024-06-21 0742ESE 8.9 15.0----29.86- 81.7 84.0----
2024-06-21 0736 SE 12.0 15.9----29.85- 82.0 84.0----
2024-06-21 0730ESE 9.9 15.9----29.85- 82.0 84.2----
2024-06-21 0724ESE 11.1 14.0----29.85- 82.2 84.2----
2024-06-21 0718 E 8.9 14.0----29.85- 82.2 84.2----
2024-06-21 0712ESE 8.0 15.0----29.85- 82.4 84.2----
2024-06-21 0706ESE 11.1 13.0----29.85- 82.6 84.2----
2024-06-21 0700ESE 8.0 14.0----29.85+0.01 82.4 84.2----
2024-06-21 0654ESE 9.9 18.1----29.85- 82.8 84.2----
2024-06-21 0648ESE 14.0 18.1----29.85- 82.9 84.2----
2024-06-21 0642ESE 13.0 17.1----29.85- 82.9 84.0----
2024-06-21 0636ESE 15.0 20.0----29.85- 83.3 84.4----
2024-06-21 0630 SE 12.0 18.1----29.85- 82.9 84.4----
2024-06-21 0624ESE 12.0 15.9----29.84- 83.3 84.4----
2024-06-21 0618ESE 8.9 17.1----29.84- 84.0 84.4----
2024-06-21 0612ESE 12.0 17.1----29.84- 83.7 84.6----
2024-06-21 0606ESE 13.0 19.0----29.83- 83.7 84.4----
2024-06-21 0600ESE 11.1 14.0----29.83-0.01 82.9 84.4----
2024-06-21 0554ESE 12.0 15.0----29.83- 82.4 84.4----
2024-06-21 0548ESE 12.0 17.1----29.83- 82.0 84.4----
2024-06-21 0542ESE 12.0 18.1----29.83- 82.4 84.4----
2024-06-21 0536ESE 14.0 21.0----29.83- 83.7 84.4----
2024-06-21 0530ESE 15.9 22.9----29.84- 84.7 84.4----
2024-06-21 0524ESE 14.0 20.0----29.84- 86.4 84.4----
2024-06-21 0518 E 12.0 17.1----29.83- 86.5 84.4----
2024-06-21 0512 E 12.0 15.9----29.84- 85.8 84.4----
2024-06-21 0506 E 11.1 14.0----29.83- 84.9 84.4----
2024-06-21 0500 E 11.1 14.0----29.83-0.02 84.7 84.4----
2024-06-21 0454 E 8.0 18.1----29.83- 84.0 84.4----
2024-06-21 0448 E 13.0 20.0----29.84- 84.7 84.4----
2024-06-21 0442ESE 13.0 15.9----29.83- 87.3 84.4----
2024-06-21 0436 E 9.9 14.0----29.83- 87.8 84.4----
2024-06-21 0430ESE 12.0 18.1----29.83- 87.1 84.4----
2024-06-21 0424 E 8.0 15.0----29.83- 86.7 84.4----
2024-06-21 0418 E 8.9 13.0----29.83- 87.4 84.4----
2024-06-21 0412 E 8.0 15.9----29.83- 87.3 84.4----
2024-06-21 0406 E 11.1 17.1----29.84- 86.7 84.4----
2024-06-21 0400 E 9.9 14.0----29.84-0.02 87.1 84.4----
2024-06-21 0354 E 7.0 13.0----29.84- 86.4 84.4----
2024-06-21 0348 E 9.9 13.0----29.84- 86.4 84.4----
2024-06-21 0342 E 11.1 15.9----29.84- 86.0 84.4----
2024-06-21 0336 E 9.9 15.9----29.83- 86.4 84.4----
2024-06-21 0330ENE 11.1 13.0----29.84- 85.6 84.4----
2024-06-21 0324ENE 6.0 11.1----29.84- 84.0 84.2----
2024-06-21 0318ENE 8.0 17.1----29.84- 83.5 84.2----
2024-06-21 0312ENE 13.0 19.0----29.84- 85.3 84.2----
2024-06-21 0306 E 12.0 17.1----29.84- 87.3 84.4----
2024-06-21 0300ESE 12.0 15.0----29.84-0.03 87.4 84.4----
2024-06-21 0254 E 9.9 13.0----29.84- 87.8 84.4----
2024-06-21 0248ESE 9.9 14.0----29.84- 87.3 84.6----
2024-06-21 0242ESE 12.0 18.1----29.85- 88.2 84.6----
2024-06-21 0236ESE 14.0 18.1----29.85- 87.8 84.2----
2024-06-21 0230ESE 11.1 14.0----29.85- 87.3 84.2----
2024-06-21 0224ESE 12.0 17.1----29.85- 87.6 84.2----
2024-06-21 0218 E 11.1 17.1----29.85- 88.2 84.2----
2024-06-21 0212ESE 13.0 18.1----29.85- 87.4 84.4----
2024-06-21 0206ENE 11.1 17.1----29.85- 88.2 84.4----
2024-06-21 0200 E 11.1 19.0----29.85-0.02 87.8 84.4----
2024-06-21 0154 E 7.0 14.0----29.85- 87.8 84.2----
2024-06-21 0148ENE 9.9 15.9----29.86- 88.0 84.2----
2024-06-21 0142ENE 8.9 15.0----29.86- 87.6 84.2----
2024-06-21 0136ENE 11.1 14.0----29.86- 87.6 84.2----
2024-06-21 0130 E 8.9 14.0----29.86- 87.1 84.2----
2024-06-21 0124 E 9.9 15.0----29.85- 87.6 84.2----
2024-06-21 0118 E 8.9 15.0----29.86- 87.1 84.2----
2024-06-21 0112 E 11.1 14.0----29.86- 86.7 84.2----
2024-06-21 0106 E 12.0 14.0----29.86- 87.1 84.2----
2024-06-21 0100ENE 7.0 14.0----29.86-0.01 87.3 84.2----
2024-06-21 0054ENE 11.1 15.0----29.86- 87.4 84.2----
2024-06-21 0048 E 9.9 14.0----29.86- 87.4 84.2----
2024-06-21 0042 E 9.9 14.0----29.87- 87.8 84.2----
2024-06-21 0036 E 11.1 14.0----29.87- 87.6 84.2----
2024-06-21 0030 E 8.9 12.0----29.87- 87.1 84.2----
2024-06-21 0024 E 8.9 13.0----29.87- 86.9 84.2----
2024-06-21 0018 E 8.0 12.0----29.87- 87.1 84.0----
2024-06-21 0012 E 5.1 11.1----29.87- 86.2 84.0----
2024-06-21 0006ENE 8.0 12.0----29.87- 85.6 84.0----
2024-06-21 0000 E 8.9 12.0----29.87+0.01 85.6 84.0----
2024-06-20 2354ENE 7.0 9.9----29.87- 86.4 84.0----
2024-06-20 2348ENE 5.1 14.0----29.88- 86.9 84.0----
2024-06-20 2342ENE 8.9 14.0----29.88- 86.7 83.8----
2024-06-20 2336ENE 8.0 14.0----29.88- 86.0 83.8----
2024-06-20 2330ENE 8.9 12.0----29.87- 85.6 83.8----
2024-06-20 2324 NE 8.0 11.1----29.87- 85.6 83.8----
2024-06-20 2318ENE 6.0 9.9----29.87- 85.8 83.8----
2024-06-20 2312 NE 7.0 8.9----29.87- 85.5 83.8----
2024-06-20 2306 E 6.0 12.0----29.87- 85.3 83.8----
2024-06-20 2300ENE 7.0 13.0----29.87+0.04 84.9 83.8----
2024-06-20 2254 NE 7.0 12.0----29.87- 85.3 83.8----
2024-06-20 2248ENE 6.0 9.9----29.87- 85.1 83.8----
2024-06-20 2242ENE 7.0 11.1----29.87- 85.3 83.8----
2024-06-20 2236ENE 7.0 9.9----29.87- 85.1 83.8----
2024-06-20 2230 NE 8.0 12.0----29.87-- 83.8----
2024-06-20 2224 NE 5.1 8.0----29.87-- 83.8----
2024-06-20 2218 NE 6.0 8.9----29.87-------
2024-06-20 2212 NE 4.1 7.0----29.87-------
2024-06-20 2206NNE 6.0 8.0----29.87-------
2024-06-20 2200NNE 6.0 8.9----29.87+0.04 84.7 83.7----
2024-06-20 2154 NE 5.1 8.9----29.87- 84.7 83.7----
2024-06-20 2148 NE 7.0 8.0----29.87- 84.6 83.7----
2024-06-20 2142ENE 5.1 8.0----29.87- 84.6 83.7----
2024-06-20 2136 NE 6.0 8.0----29.87- 84.2 83.7----
2024-06-20 2130 NE 5.1 7.0----29.87- 84.2 83.7----
2024-06-20 2124ENE 5.1 7.0----29.87- 83.8 83.7----
2024-06-20 2118 NE 5.1 8.0----29.87- 84.0 83.7----
2024-06-20 2112ENE 4.1 6.0----29.86- 84.0 83.7----
2024-06-20 2106 NE 4.1 6.0----29.86- 83.7 83.7----
2024-06-20 2100ENE 4.1 6.0----29.86+0.04 83.3 83.7----
2024-06-20 2054ENE 2.9 6.0----29.86- 82.9 83.7----
2024-06-20 2048ENE 4.1 5.1----29.85- 82.8 83.7----
2024-06-20 2042ENE 2.9 5.1----29.85- 82.8 83.7----
2024-06-20 2036ENE 2.9 5.1----29.85- 82.0 83.7----
2024-06-20 2030ENE 2.9 5.1----29.85- 81.7 83.7----
2024-06-20 2024ENE 2.9 5.1----29.85- 81.3 83.7----
2024-06-20 2018ENE 4.1 5.1----29.84- 81.5 83.7----
2024-06-20 2012ENE 2.9 5.1----29.84- 81.0 83.7----
2024-06-20 2006ENE 2.9 5.1----29.84- 81.0 83.7----
2024-06-20 2000 E 4.1 5.1----29.84+0.01 80.8 83.7----
2024-06-20 1954ENE 4.1 5.1----29.84- 81.0 83.7----
2024-06-20 1948ENE 4.1 6.0----29.84- 81.1 83.7----
2024-06-20 1942ENE 2.9 5.1----29.83- 81.0 83.7----
2024-06-20 1936ENE 2.9 5.1----29.83- 81.0 83.7----
2024-06-20 1930ENE 4.1 5.1----29.83-- 83.7----
2024-06-20 1924 E 4.1 5.1----29.83-- 83.7----
2024-06-20 1918 E 4.1 5.1----29.83- 81.0 83.7----
2024-06-20 1912 E 4.1 5.1----29.83- 80.8 83.7----
2024-06-20 1906ENE 2.9 5.1----29.83- 80.8 83.7----
2024-06-20 1900ENE 4.1 5.1----29.83+0.00 80.8 83.7----
2024-06-20 1854 E 4.1 5.1----29.83- 80.8 83.7----
2024-06-20 1848ENE 2.9 5.1----29.83- 80.8 83.7----
2024-06-20 1842ENE 4.1 5.1----29.83- 80.8 83.7----
2024-06-20 1836ENE 4.1 5.1----29.83- 80.6 83.5----
2024-06-20 1830 E 2.9 4.1----29.83- 80.6 83.5----
2024-06-20 1824ENE 4.1 5.1----29.83- 80.8 83.5----
2024-06-20 1818ENE 1.9 4.1----29.83- 80.6 83.5----
2024-06-20 1812ENE 1.9 4.1----29.83- 80.6 83.5----
2024-06-20 1806 NE 1.9 5.1----29.82- 80.6 83.5----
2024-06-20 1800ENE 2.9 4.1----29.82-0.03 80.6 83.5----
2024-06-20 1754ENE 2.9 5.1----29.82- 80.8 83.5----
2024-06-20 1748ENE 2.9 4.1----29.82- 80.8 83.7----
2024-06-20 1742 E 2.9 6.0----29.82- 80.8 83.7----
2024-06-20 1736ENE 4.1 6.0----29.82- 80.8 83.7----
2024-06-20 1730 E 4.1 6.0----29.82- 80.6 83.7----
2024-06-20 1724 E 4.1 5.1----29.82- 80.4 83.7----
2024-06-20 1718 E 4.1 5.1----29.82- 80.4 83.7----
2024-06-20 1712ENE 2.9 4.1----29.82- 80.6 83.7----
2024-06-20 1706 E 2.9 2.9----29.82- 80.6 83.7----
2024-06-20 1700ENE 2.9 2.9----29.82-0.05 80.4 83.7----
2024-06-20 1654ENE 2.9 4.1----29.83- 80.4 83.7----
2024-06-20 1648 E 2.9 4.1----29.83- 80.4 83.7----
2024-06-20 1642ENE 2.9 4.1----29.83- 80.6 83.7----
2024-06-20 1636ENE 2.9 4.1----29.83- 81.0 83.7----
2024-06-20 1630ENE 2.9 4.1----29.83- 81.0 83.7----
2024-06-20 1624ENE 2.9 5.1----29.83- 81.0 83.7----
2024-06-20 1618ENE 4.1 5.1----29.83- 80.8 83.7----
2024-06-20 1612ENE 2.9 5.1----29.83- 80.8 83.7----
2024-06-20 1606 E 4.1 5.1----29.83- 81.0 83.7----
2024-06-20 1600 E 4.1 5.1----29.83-0.06 81.1 83.7----
2024-06-20 1554ENE 2.9 4.1----29.83- 81.1 83.7----
2024-06-20 1548ENE 2.9 4.1----29.84- 81.3 83.7----
2024-06-20 1542ENE 2.9 4.1----29.84- 81.1 83.7----
2024-06-20 1536ENE 1.9 2.9----29.84- 81.0 83.7----
2024-06-20 1530ENE 1.9 2.9----29.84- 80.8 83.7----
2024-06-20 1524ENE 2.9 4.1----29.84- 80.8 83.7----
2024-06-20 1518ENE 1.9 2.9----29.84- 80.8 83.8----
2024-06-20 1512 E 1.9 2.9----29.84- 80.8 83.8----
2024-06-20 1506ESE 1.0 1.9----29.85- 81.0 83.8----
2024-06-20 1500- 0.0 1.9----29.85-0.04 81.0 83.8----
2024-06-20 1454ENE 1.9 2.9----29.85- 81.0 83.7----